This demonstration page uses our WeatherBlox Daily Observations layout. Learn more.

Hourly Observations for September 6, 2016

Temp ( °F °C ) Dew Point ( °F °C ) Humidity (%) Winds ( mph kmh ) Pressure ( in mb ) Visibility ( mi km ) Precip ( " mm )
12:15 am 00:15 Clear 75 23.9 65 18.5 72 72 SSE 7 11 29.71 1006 10 16.09344 0 0
12:35 am 00:35 Clear 74 23.1 65 18.6 76 76 SSE 6 9 29.71 1006 10 16.09344 0 0
12:55 am 00:55 Clear 75 23.7 65 18.5 73 73 S 8 13 29.71 1006 10 16.09344 0 0
1:15 am 01:15 Clear 75 23.9 65 18.6 72 72 S 9 15 29.71 1006 10 16.09344 0 0
1:35 am 01:35 Clear 75 23.9 65 18.6 72 72 S 8 13 29.71 1006 10 16.09344 0 0
1:55 am 01:55 Clear 75 24 65 18.5 71 71 S 12 19 29.71 1006 10 16.09344 0 0
2:15 am 02:15 Clear 75 24 65 18.4 71 71 S 8 13 29.71 1006 10 16.09344 0 0
2:35 am 02:35 Clear 74 23.6 65 18.4 73 73 S 8 13 29.71 1006 10 16.09344 0 0
2:55 am 02:55 Clear 75 23.9 65 18.2 71 71 S 13 20 29.71 1006 10 16.09344 0 0
3:15 am 03:15 Clear 75 24 64 18 69 69 S 12 19 29.71 1006 10 16.09344 0 0
3:35 am 03:35 Clear 75 23.7 64 18 71 71 S 10 17 29.71 1006 10 16.09344 0 0
3:55 am 03:55 Clear 74 23.2 64 18 73 73 S 9 15 29.71 1006 10 16.09344 0 0
4:15 am 04:15 Clear 74 23.1 64 18 73 73 S 12 19 29.71 1006 10 16.09344 0 0
4:35 am 04:35 Clear 73 22.9 64 18 74 74 S 9 15 29.71 1006 10 16.09344 0 0
4:55 am 04:55 Clear 73 22.5 64 18 76 76 SSE 13 20 29.71 1006 10 16.09344 0 0
5:15 am 05:15 Clear 72 22.2 64 18 77 77 S 7 11 29.71 1006 10 16.09344 0 0
5:35 am 05:35 Clear 72 22.2 64 17.7 76 76 SSW 5 7 29.74 1007 10 16.09344 0 0
6:00 am 06:00 Clear 71 21.4 64 17.7 80 80 Calm 29.77 1008 10 16.09344 0 0
6:20 am 06:20 Clear 68 19.9 64 17.6 87 87 SE 5 7 29.77 1008 10 16.09344 0 0
6:35 am 06:35 Clear 68 20 64 17.7 87 87 SE 3 6 29.77 1008 10 16.09344 0 0
7:00 am 07:00 Clear 66 19.1 64 17.5 91 91 SE 7 11 29.77 1008 10 16.09344 0 0
7:10 am 07:10 Clear 67 19.4 64 17.7 90 90 SSE 8 13 29.77 1008 10 16.09344 0 0
7:31 am 07:31 Sunny 68 20 64 18 88 88 SSE 6 9 29.8 1009 10 16.09344 0 0
7:40 am 07:40 Sunny 69 20.5 64 18 86 86 SSE 6 9 29.8 1009 10 16.09344 0 0
7:55 am 07:55 Sunny 69 20.8 65 18.2 85 85 SSE 7 11 29.8 1009 10 16.09344 0 0
8:15 am 08:15 Sunny 71 21.4 65 18.3 83 83 S 8 13 29.8 1009 10 16.09344 0 0
8:35 am 08:35 Sunny 72 22 65 18.5 81 81 S 8 13 29.77 1008 10 16.09344 0 0
8:55 am 08:55 Sunny 73 22.9 65 18.4 76 76 S 8 13 29.77 1008 10 16.09344 0 0
9:15 am 09:15 Sunny 74 23.1 65 18.5 75 75 S 6 9 29.77 1008 10 16.09344 0 0
9:35 am 09:35 Sunny 74 23.5 65 18.5 74 74 Calm 29.8 1009 10 16.09344 0 0
9:55 am 09:55 Sunny 74 23.6 65 18.6 74 74 Calm 29.8 1009 10 16.09344 0 0
10:15 am 10:15 Sunny 73 22.8 67 19.5 82 82 N 5 7 29.8 1009 10 16.09344 0 0
10:35 am 10:35 Sunny 75 23.7 67 19.7 78 78 NNE 5 7 29.8 1009 10 16.09344 0 0
10:55 am 10:55 Sunny 75 23.7 67 19.6 78 78 NNE 6 9 29.8 1009 10 16.09344 0 0
11:15 am 11:15 Sunny 75 23.9 67 19.6 77 77 NNE 5 7 29.8 1009 10 16.09344 0 0
11:35 am 11:35 Sunny 76 24.3 66 19.1 73 73 Calm 29.8 1009 10 16.09344 0 0
11:55 am 11:55 Sunny 77 24.9 67 19.6 72 72 NE 5 7 29.8 1009 10 16.09344 0 0
12:15 pm 12:15 Sunny 77 25 67 19.7 72 72 NE 6 9 29.83 1010 10 16.09344 0 0
12:35 pm 12:35 Sunny 80 26.5 67 19.6 66 66 NNE 3 6 29.8 1009 10 16.09344 0 0
12:55 pm 12:55 Sunny 79 26.1 67 19.2 66 66 NNE 5 7 29.83 1010 10 16.09344 0 0
1:15 pm 13:15 Sunny 80 26.9 66 19.1 62 62 Calm 29.8 1009 10 16.09344 0 0
1:35 pm 13:35 Partly Cloudy 82 27.8 67 19.3 60 60 N 5 7 29.8 1009 10 16.09344 0 0
1:55 pm 13:55 Partly Cloudy 82 27.7 67 19.6 61 61 N 7 11 29.8 1009 10 16.09344 0 0
2:15 pm 14:15 Partly Cloudy 82 27.8 67 19.2 60 60 NNW 3 6 29.8 1009 10 16.09344 0 0
2:35 pm 14:35 Sunny 82 27.6 67 19.2 60 60 NNE 5 7 29.8 1009 10 16.09344 0 0
2:55 pm 14:55 Partly Cloudy 83 28.5 66 19.1 57 57 Calm 29.77 1008 10 16.09344 0 0
3:15 pm 15:15 Mostly Cloudy 83 28.5 68 19.9 60 60 NNE 5 7 29.77 1008 10 16.09344 0 0
3:35 pm 15:35 Partly Cloudy 84 28.7 67 19.6 58 58 N 3 6 29.77 1008 10 16.09344 0 0
3:55 pm 15:55 Mostly Cloudy 83 28.5 68 20.1 60 60 N 7 11 29.77 1008 10 16.09344 0 0
4:15 pm 16:15 Partly Cloudy 84 28.8 68 19.9 59 59 N 7 11 29.77 1008 10 16.09344 0 0
4:35 pm 16:35 Sunny 84 28.9 67 19.7 58 58 NNW 5 7 29.77 1008 10 16.09344 0 0
4:55 pm 16:55 Sunny 85 29.2 68 20.2 58 58 NNW 8 13 29.77 1008 10 16.09344 0 0
5:15 pm 17:15 Sunny 82 27.8 68 20.2 63 63 N 10 17 29.77 1008 10 16.09344 0 0
5:35 pm 17:35 Sunny 79 26.1 68 20 69 69 N 15 24 29.77 1008 10 16.09344 0 0
5:55 pm 17:55 Sunny 77 25.1 67 19.4 71 71 N 14 22 29.8 1009 10 16.09344 0 0
6:15 pm 18:15 Sunny 77 25 66 19.1 70 70 NNE 12 19 29.8 1009 10 16.09344 0 0
6:35 pm 18:35 Sunny 75 24.1 66 19.1 74 74 NNE 13 20 29.8 1009 10 16.09344 0 0
6:55 pm 18:55 Sunny 75 24.1 67 19.3 75 75 NNE 10 17 29.8 1009 10 16.09344 0 0
7:15 pm 19:15 Sunny 74 23.5 66 19 76 76 NNE 13 20 29.8 1009 10 16.09344 0 0
7:35 pm 19:35 Sunny 73 22.6 66 18.8 79 79 NNE 14 22 29.8 1009 10 16.09344 0 0
7:55 pm 19:55 Sunny 72 22 65 18.5 81 81 NNE 12 19 29.83 1010 10 16.09344 0 0
8:15 pm 20:15 Clear 70 21.1 65 18.2 84 84 NNE 14 22 29.85 1011 10 16.09344 0 0
8:35 pm 20:35 Clear 69 20.7 65 18.1 85 85 NE 12 19 29.85 1011 10 16.09344 0 0
8:55 pm 20:55 Partly Cloudy 68 20.2 64 18 87 87 NNE 10 17 29.85 1011 10 16.09344 0 0
9:15 pm 21:15 Cloudy 68 20.1 64 17.6 86 86 NNE 12 19 29.85 1011 10 16.09344 0 0
9:35 pm 21:35 Cloudy 68 20 64 17.6 86 86 NNE 12 19 29.88 1012 10 16.09344 0 0
9:55 pm 21:55 Cloudy 67 19.6 63 17.3 87 87 NNE 9 15 29.88 1012 10 16.09344 0 0
10:15 pm 22:15 Cloudy 67 19.3 63 17.1 87 87 NNE 10 17 29.88 1012 10 16.09344 0 0
10:35 pm 22:35 Cloudy 67 19.2 63 17.1 88 88 NNE 10 17 29.85 1011 10 16.09344 0 0
10:55 pm 22:55 Cloudy 66 19 63 17 88 88 NE 5 7 29.91 1013 10 16.09344 0 0
11:15 pm 23:15 Cloudy 66 19 63 17 88 88 ENE 7 11 29.91 1013 10 16.09344 0 0
11:35 pm 23:35 Cloudy 66 18.7 63 17 90 90 NE 6 9 29.91 1013 10 16.09344 0 0
11:55 pm 23:55 Mostly Cloudy with Thunderstorms 65 18.5 62 16.9 90 90 NE 6 9 29.91 1013 10 16.09344 0 0

Powered by AerisWeather